Tracking 25734 objects as of 26-May-2022
HD Live streaming from Space Station
objects crossing your sky now

FALCON 9 DEB

Track FALCON 9 DEB now!
10-day predictions


NORAD ID: 48610
Int'l Code: 2021-041BK
Perigee: 568.2 km
Apogee: 588.1 km
Inclination: 53.0 °
Period: 96.1 minutes
Semi major axis: 6949 km
RCS: Unknown
Launch date: May 15, 2021
Source: United States (US)
Launch site: AIR FORCE EASTERN TEST RANGE (AFETR)

Note: This is SATELLITE DEBRIS
aabbcc
Your satellite tracking list
Your tracking list is empty




NASA's NSSDC Master Catalog

Two Line Element Set (TLE):
1 48610U 21041BK  22145.60287592  .00002259  00000-0  20761-3 0  9997
2 48610  53.0300 253.5542 0014296 334.7493  25.2792 14.98659625 56163
Source of the keplerian elements: AFSPC